• In Sweden
  • List of Countries
  • For 7 days
  • Water Temperature
  • Satellite Maps
  • Weather Map
  • Weather Widgets
  • user-avatar
    Login

    Hourly Weather Rodionovka

    Today, 28 May, Monday

    Time Temperature Precipitation Wind Pressure Humidity
    00:00 +4°C° 0 mm 1 mps 750 mmHg 55%
    01:00 +3°C° 0 mm 1 mps 750 mmHg 56%
    02:00 +3°C° 0 mm 1 mps 749 mmHg 56%
    03:00 +3°C° 0 mm 1 mps 749 mmHg 56%
    04:00 +4°C° 0 mm 1 mps 749 mmHg 55%
    05:00 +4°C° 0 mm 1 mps 749 mmHg 53%
    06:00 +5°C° 0 mm 1 mps 748 mmHg 52%
    07:00 +6°C° 0 mm 1 mps 748 mmHg 48%
    08:00 +8°C° 0 mm 1 mps 748 mmHg 44%
    09:00 +10°C° 0 mm 1 mps 748 mmHg 41%
    10:00 +12°C° 0 mm 1 mps 748 mmHg 36%
    11:00 +14°C° 0 mm 1 mps 748 mmHg 32%
    12:00 +16°C° 0 mm 1 mps 748 mmHg 28%
    13:00 +16°C° 0 mm 1 mps 748 mmHg 27%
    14:00 +16°C° 0 mm 1 mps 747 mmHg 26%
    15:00 +16°C° 0 mm 2 mps 747 mmHg 25%
    16:00 +16°C° 0 mm 2 mps 748 mmHg 27%
    17:00 +16°C° 0 mm 3 mps 748 mmHg 30%
    18:00 +14°C° 0 mm 4 mps 748 mmHg 33%
    19:00 +13°C° 0 mm 4 mps 748 mmHg 45%
    20:00 +11°C° 0 mm 4 mps 749 mmHg 57%
    21:00 +8°C° 0 mm 4 mps 749 mmHg 69%
    22:00 +7°C° 0 mm 4 mps 749 mmHg 74%
    23:00 +6°C° 0 mm 4 mps 749 mmHg 79%

    Tomorrow, 29 May, Tuesday

    Time Temperature Precipitation Wind Pressure Humidity
    00:00 +6°C° 0 mm 4 mps 748 mmHg 84%
    01:00 +5°C° 0 mm 4 mps 748 mmHg 83%
    02:00 +5°C° 0 mm 4 mps 748 mmHg 82%
    03:00 +5°C° 0 mm 4 mps 747 mmHg 81%
    04:00 +5°C° 0 mm 5 mps 747 mmHg 79%
    05:00 +6°C° 0 mm 5 mps 747 mmHg 78%
    06:00 +6°C° 0 mm 5 mps 746 mmHg 76%
    07:00 +7°C° 0.1 mm 5 mps 746 mmHg 74%
    08:00 +9°C° 0.1 mm 6 mps 746 mmHg 71%
    09:00 +10°C° 0.1 mm 6 mps 746 mmHg 68%
    10:00 +10°C° 0.2 mm 6 mps 745 mmHg 69%
    11:00 +11°C° 0.2 mm 6 mps 745 mmHg 70%
    12:00 +12°C° 0.2 mm 7 mps 745 mmHg 71%
    13:00 +13°C° 0.4 mm 6 mps 745 mmHg 74%
    14:00 +13°C° 0.4 mm 6 mps 744 mmHg 77%
    15:00 +13°C° 0.4 mm 6 mps 744 mmHg 80%
    16:00 +13°C° 0.5 mm 6 mps 744 mmHg 79%
    17:00 +13°C° 0.5 mm 6 mps 744 mmHg 79%
    18:00 +12°C° 0.5 mm 7 mps 744 mmHg 78%
    19:00 +10°C° 0.1 mm 6 mps 745 mmHg 81%
    20:00 +8°C° 0.1 mm 5 mps 746 mmHg 83%
    21:00 +6°C° 0.1 mm 5 mps 746 mmHg 85%
    22:00 +5°C° 0 mm 4 mps 747 mmHg 88%
    23:00 +4°C° 0 mm 3 mps 748 mmHg 91%

    Day after tomorrow, 30 May, Wednesday

    Time Temperature Precipitation Wind Pressure Humidity
    00:00 +4°C° 0 mm 2 mps 749 mmHg 94%
    01:00 +3°C° 0 mm 2 mps 749 mmHg 95%
    02:00 +3°C° 0 mm 2 mps 749 mmHg 96%
    03:00 +3°C° 0 mm 2 mps 749 mmHg 96%
    04:00 +3°C° 0 mm 2 mps 749 mmHg 93%
    05:00 +4°C° 0 mm 2 mps 750 mmHg 91%
    06:00 +5°C° 0 mm 2 mps 750 mmHg 88%
    07:00 +6°C° 0.1 mm 2 mps 749 mmHg 84%
    08:00 +7°C° 0.1 mm 2 mps 749 mmHg 80%
    09:00 +8°C° 0.1 mm 2 mps 749 mmHg 77%
    10:00 +10°C° 0.1 mm 2 mps 749 mmHg 69%
    11:00 +13°C° 0.1 mm 2 mps 748 mmHg 62%
    12:00 +14°C° 0.1 mm 1 mps 748 mmHg 54%
    13:00 +15°C° 0 mm 1 mps 748 mmHg 52%
    14:00 +16°C° 0 mm 1 mps 747 mmHg 50%
    15:00 +18°C° 0 mm 1 mps 747 mmHg 48%
    16:00 +16°C° 0.2 mm 2 mps 746 mmHg 54%
    17:00 +15°C° 0.2 mm 2 mps 746 mmHg 59%
    18:00 +15°C° 0.2 mm 2 mps 746 mmHg 65%
    19:00 +12°C° 1.1 mm 3 mps 745 mmHg 73%
    20:00 +11°C° 1.1 mm 3 mps 745 mmHg 81%
    21:00 +9°C° 1.1 mm 3 mps 745 mmHg 89%
    22:00 +9°C° 0.5 mm 3 mps 745 mmHg 90%
    23:00 +8°C° 0.5 mm 3 mps 745 mmHg 91%

    31 May, Thursday

    Time Temperature Precipitation Wind Pressure Humidity
    00:00 +8°C° 0.5 mm 3 mps 744 mmHg 92%
    01:00 +8°C° 0.1 mm 3 mps 744 mmHg 92%
    02:00 +8°C° 0.1 mm 3 mps 744 mmHg 92%
    03:00 +7°C° 0.1 mm 3 mps 743 mmHg 92%
    04:00 +6°C° 1.3 mm 4 mps 744 mmHg 92%
    05:00 +6°C° 1.3 mm 4 mps 744 mmHg 92%
    06:00 +6°C° 1.3 mm 4 mps 744 mmHg 92%
    07:00 +5°C° 1.7 mm 4 mps 744 mmHg 92%
    08:00 +5°C° 1.7 mm 4 mps 745 mmHg 91%
    09:00 +5°C° 1.7 mm 4 mps 745 mmHg 90%
    10:00 +7°C° 0.6 mm 4 mps 746 mmHg 83%
    11:00 +8°C° 0.6 mm 4 mps 746 mmHg 76%
    12:00 +10°C° 0.6 mm 4 mps 747 mmHg 69%
    13:00 +12°C° 0 mm 3 mps 747 mmHg 58%
    14:00 +13°C° 0 mm 3 mps 748 mmHg 47%
    15:00 +16°C° 0 mm 2 mps 748 mmHg 36%
    16:00 +16°C° 0 mm 3 mps 749 mmHg 35%
    17:00 +16°C° 0 mm 3 mps 749 mmHg 34%
    18:00 +16°C° 0 mm 3 mps 750 mmHg 33%
    19:00 +14°C° 0 mm 4 mps 749 mmHg 40%
    20:00 +12°C° 0 mm 4 mps 749 mmHg 46%
    21:00 +11°C° 0 mm 4 mps 749 mmHg 53%
    22:00 +10°C° 0 mm 5 mps 749 mmHg 57%
    23:00 +9°C° 0 mm 5 mps 748 mmHg 61%

    1 June, Friday

    Time Temperature Precipitation Wind Pressure Humidity
    00:00 +9°C° 0 mm 6 mps 747 mmHg 65%
    01:00 +9°C° 1.1 mm 6 mps 746 mmHg 72%
    02:00 +9°C° 1.1 mm 6 mps 746 mmHg 79%
    03:00 +9°C° 1.1 mm 7 mps 745 mmHg 87%
    04:00 +9°C° 1.1 mm 6 mps 744 mmHg 88%
    05:00 +10°C° 1.1 mm 6 mps 744 mmHg 90%
    06:00 +10°C° 1.1 mm 6 mps 744 mmHg 91%
    07:00 +11°C° 0.2 mm 6 mps 744 mmHg 88%
    08:00 +13°C° 0.2 mm 6 mps 743 mmHg 85%
    09:00 +14°C° 0.2 mm 6 mps 743 mmHg 82%
    10:00 +14°C° 1.2 mm 6 mps 743 mmHg 85%
    11:00 +13°C° 1.2 mm 6 mps 742 mmHg 88%
    12:00 +13°C° 1.2 mm 5 mps 741 mmHg 91%
    13:00 +12°C° 3.2 mm 5 mps 741 mmHg 91%
    14:00 +12°C° 3.2 mm 5 mps 741 mmHg 91%
    15:00 +12°C° 3.2 mm 5 mps 740 mmHg 91%
    16:00 +11°C° 0.3 mm 6 mps 741 mmHg 85%
    17:00 +11°C° 0.3 mm 6 mps 742 mmHg 79%
    18:00 +11°C° 0.3 mm 6 mps 743 mmHg 73%
    19:00 +10°C° 0.1 mm 6 mps 743 mmHg 73%
    20:00 +9°C° 0.1 mm 5 mps 744 mmHg 73%
    21:00 +8°C° 0.1 mm 4 mps 744 mmHg 73%
    22:00 +8°C° 0 mm 4 mps 745 mmHg 74%
    23:00 +7°C° 0 mm 5 mps 745 mmHg 74%

    2 June, Saturday

    Time Temperature Precipitation Wind Pressure Humidity
    00:00 +7°C° 0 mm 5 mps 746 mmHg 75%
    01:00 +7°C° 0 mm 5 mps 746 mmHg 75%
    02:00 +7°C° 0 mm 5 mps 746 mmHg 75%
    03:00 +7°C° 0 mm 5 mps 747 mmHg 75%
    04:00 +7°C° 0.1 mm 6 mps 747 mmHg 75%
    05:00 +7°C° 0.1 mm 6 mps 748 mmHg 75%
    06:00 +7°C° 0.1 mm 6 mps 749 mmHg 74%
    07:00 +7°C° 0.1 mm 6 mps 750 mmHg 73%
    08:00 +7°C° 0.1 mm 6 mps 750 mmHg 72%
    09:00 +7°C° 0.1 mm 5 mps 751 mmHg 71%
    10:00 +8°C° 0 mm 5 mps 752 mmHg 65%
    11:00 +9°C° 0 mm 5 mps 752 mmHg 58%
    12:00 +10°C° 0 mm 5 mps 753 mmHg 52%
    13:00 +12°C° 0 mm 5 mps 753 mmHg 46%
    14:00 +13°C° 0 mm 4 mps 753 mmHg 41%
    15:00 +14°C° 0 mm 4 mps 753 mmHg 36%
    16:00 +14°C° 0 mm 4 mps 753 mmHg 35%
    17:00 +14°C° 0 mm 3 mps 753 mmHg 35%
    18:00 +14°C° 0 mm 3 mps 753 mmHg 34%
    19:00 +13°C° 0 mm 2 mps 753 mmHg 40%
    20:00 +11°C° 0 mm 1 mps 753 mmHg 47%
    21:00 +9°C° 0 mm 1 mps 753 mmHg 53%
    22:00 +9°C° 0 mm 1 mps 753 mmHg 54%
    23:00 +8°C° 0 mm 1 mps 753 mmHg 56%
    Show more